Regional Weather Roundup
Issued by NWS

Home | Current Version | Previous Version | Graphics & Text | Print | Product List | Glossary On
Versions: 1 2 3 4 5 6 7 8 9 10 11 12 13 14 15 16 17 18 19 20 21 22 23 24 25 26 27 28 29 30 31 32 33 34 35 36 37 38 39 40 41 42 43 44 45 46 47 48 49 50
000
ASUS43 KIND 250459
RWRIN

WEATHER ROUNDUP FOR INDIANA
NATIONAL WEATHER SERVICE INDIANAPOLIS IN
100 AM EDT FRI JUL 25 2014

NOTE: "FAIR" INDICATES FEW OR NO CLOUDS BELOW 12,000 FEET WITH NO
SIGNIFICANT WEATHER AND/OR OBSTRUCTIONS TO VISIBILITY.

* - STATION DOES NOT REPORT WEATHER SUCH AS PRECIPITATION OR FOG.

+ - STATION NOT QUALITY CONTROLLED BY THE NATIONAL WEATHER SERVICE.
    USE DATA WITH CAUTION...ESPECIALLY DEWPOINT AND RELATIVE
    HUMIDITY OBSERVATIONS.

INZ001>003-010>013-019-020-250600-
NORTHWEST INDIANA

CITY           SKY/WX    TMP DP  RH WIND       PRES   REMARKS
GARY /AIRPORT/ CLEAR     56  53  92 CALM      30.07S
KNOX *+        CLEAR     52  49  91 CALM      30.07S
MONTICELLO +   CLEAR     58  55  91 CALM      30.06S
RENSSELAER +   CLEAR     55  54  94 NE3       30.08S
VALPARAISO     CLEAR     51  48  89 CALM      30.07F

$$

LMZ046-743>745-250600-
SOUTHERN LAKE MICHIGAN

STATION/POSITION TIME  TEMP WIND        PRES
                       AIR  DIR/SP/G
                 (UTC) (F)  (DEG/KT/KT) (MB)
MICHIGAN CITY    0400   61   90/  4/  5   N/A

$$

INZ004-005-014>016-021>024-250600-
NORTH CENTRAL INDIANA

CITY           SKY/WX    TMP DP  RH WIND       PRES   REMARKS
GOSHEN         CLEAR     59  53  80 CALM      30.07S
SOUTH BEND     PTCLDY    60  52  74 SE3       30.08S
WARSAW +       PTCLDY    55  54  94 CALM      30.08R

$$

INZ006>009-017-018-025>027-250600-
NORTHEAST INDIANA

CITY           SKY/WX    TMP DP  RH WIND       PRES   REMARKS
ANGOLA *+      CLEAR     55  54  94 CALM      30.08S
AUBURN +       CLEAR     55  50  82 CALM      30.08F
FORT WAYNE     PTCLDY    59  54  83 S5        30.07F

$$

INZ028-029-035-036-043>045-051>053-250600-
WEST CENTRAL INDIANA

CITY           SKY/WX    TMP DP  RH WIND       PRES   REMARKS
GREENCASTLE +  PTCLDY    55  54  94 CALM      30.06F
LAFAYETTE      PTCLDY    60  55  83 N3        30.06F
TERRE HAUTE    MOCLDY    58  55  90 CALM      30.06S

$$

INZ030>032-037>040-046>048-054>057-064-065-250600-
CENTRAL INDIANA

CITY           SKY/WX    TMP DP  RH WIND       PRES   REMARKS
INDIANAPOLIS   PTCLDY    65  53  65 CALM      30.05F
-EAGLE CREEK   CLEAR     60  54  80 N3        30.06F
KOKOMO *+      CLEAR     55  52  88 CALM      30.07S
MT COMFORT *+  CLEAR     55 N/A N/A CALM      30.06F
SHELBYVILLE    PTCLDY    59  55  87 E6        30.06F

$$

INZ033-034-041-042-049-050-058-059-250600-
EAST CENTRAL INDIANA

CITY           SKY/WX    TMP DP  RH WIND       PRES   REMARKS
MUNCIE         CLEAR     57  52  83 SE5       30.06F

$$

INZ060-061-067>069-081>083-085>088-250600-
SOUTHWEST INDIANA

CITY           SKY/WX    TMP DP  RH WIND       PRES   REMARKS
EVANSVILLE     PTCLDY    64  58  80 CALM      30.05F
HUNTINGBURG *+ MOCLDY    61  55  82 CALM      30.06F

$$

INZ062-063-066-070>080-084-089>092-250600-
SOUTH CENTRAL AND SOUTHEAST INDIANA

CITY           SKY/WX    TMP DP  RH WIND       PRES   REMARKS
BLOOMINGTON    CLEAR     56  54  93 CALM      30.06F

$$



USA.gov is the U.S. government's official web portal to all federal, state and local government web resources and services.